Weather History for Dallas Love, TX

Change the Weather History Date:

Thursday, November 28, 2013

  Actual Average Record
Temperature  
Mean Temperature 42 °F -  
Max Temperature 53 °F 60 °F 78 °F (2006)
Min Temperature 30 °F 43 °F 28 °F (2001)
Degree Days  
Heating Degree Days 24    
Moisture  
Dew Point 23 °F    
Average Humidity 50    
Maximum Humidity 65    
Minimum Humidity 31    
Precipitation  
Precipitation 0.00 in - - ()
Sea Level Pressure  
Sea Level Pressure 30.41 in    
Wind  
Wind Speed 4 mph (SSE)    
Max Wind Speed 8 mph    
Max Gust Speed -    
Visibility 10 miles    
Events      
Averages and records for this station are not official NWS values.
T = Trace of Precipitation, MM = Missing Value Source: NWS Daily Summary

Daily Weather History Graph

Daily Weather History Graph

Search for Another Location

Airport:

Trip Planner

Search our weather history database for the weather conditions in past years. The results will help you decide how hot, cold, wet, or windy it might be!

Date:

Astronomy

Nov. 28, 2013 Rise Set
Actual Time 7:09 AM CST 5:21 PM CST
Civil Twilight 6:42 AM CST 5:48 PM CST
Nautical Twilight 6:12 AM CST 6:18 PM CST
Astronomical Twilight 5:42 AM CST 6:48 PM CST
Moon 2:27 AM CST 2:19 PM CST
Length of Visible Light 11h 05m
Length of Day
10h 11m
Waning Crescent, 22% of the Moon is Illuminated
Nov 28
Waning Crescent
Dec 2
New
Dec 9
First Quarter
Dec 17
Full
Dec 25
Last Quarter

Hourly Weather History & Observations

Time (CST) Temp. Windchill Dew Point Humidity Pressure Visibility Wind Dir Wind Speed Gust Speed Precip Events Conditions
12:53 AM 36.0 °F 33.3 °F 19.9 °F 52% 30.38 in 10.0 mi SSE 3.5 mph - N/A   Mostly Cloudy
1:53 AM 35.1 °F - 19.0 °F 52% 30.37 in 10.0 mi Calm Calm - N/A   Mostly Cloudy
2:53 AM 34.0 °F 29.8 °F 19.0 °F 54% 30.38 in 10.0 mi South 4.6 mph - N/A   Mostly Cloudy
3:53 AM 34.0 °F 31.0 °F 19.0 °F 54% 30.37 in 10.0 mi South 3.5 mph - N/A   Mostly Cloudy
4:53 AM 33.1 °F 30.0 °F 18.0 °F 54% 30.37 in 10.0 mi SE 3.5 mph - N/A   Mostly Cloudy
5:53 AM 30.9 °F - 19.9 °F 64% 30.38 in 10.0 mi Calm Calm - N/A   Mostly Cloudy
6:53 AM 32.0 °F - 21.0 °F 64% 30.41 in 10.0 mi Calm Calm - N/A   Mostly Cloudy
7:53 AM 34.0 °F 31.0 °F 21.9 °F 61% 30.43 in 10.0 mi SE 3.5 mph - N/A   Mostly Cloudy
8:53 AM 37.9 °F 35.5 °F 23.0 °F 55% 30.44 in 10.0 mi South 3.5 mph - N/A   Mostly Cloudy
9:53 AM 41.0 °F 39.0 °F 21.9 °F 47% 30.45 in 10.0 mi South 3.5 mph - N/A   Mostly Cloudy
10:53 AM 44.1 °F - 24.1 °F 45% 30.45 in 10.0 mi Calm Calm - N/A   Mostly Cloudy
11:53 AM 48.9 °F - 23.0 °F 36% 30.42 in 10.0 mi SSW 5.8 mph - N/A   Mostly Cloudy
12:53 PM 51.1 °F - 23.0 °F 33% 30.39 in 10.0 mi SSW 8.1 mph - N/A   Mostly Cloudy
1:53 PM 52.0 °F - 23.0 °F 32% 30.37 in 10.0 mi WSW 6.9 mph - N/A   Mostly Cloudy
2:53 PM 53.1 °F - 23.0 °F 31% 30.36 in 10.0 mi SE 8.1 mph - N/A   Mostly Cloudy
3:53 PM 53.1 °F - 23.0 °F 31% 30.37 in 10.0 mi SSE 8.1 mph - N/A   Scattered Clouds
4:53 PM 51.1 °F - 26.1 °F 38% 30.39 in 10.0 mi SE 8.1 mph - N/A   Partly Cloudy
5:53 PM 46.9 °F - 26.1 °F 44% 30.40 in 10.0 mi SE 6.9 mph - N/A   Partly Cloudy
6:53 PM 42.1 °F 38.4 °F 27.0 °F 55% 30.42 in 10.0 mi SE 5.8 mph - N/A   Partly Cloudy
7:53 PM 42.1 °F 37.7 °F 26.1 °F 53% 30.43 in 10.0 mi ESE 6.9 mph - N/A   Clear
8:53 PM 41.0 °F 37.1 °F 26.1 °F 55% 30.44 in 10.0 mi SE 5.8 mph - N/A   Clear
9:53 PM 37.0 °F 32.4 °F 26.1 °F 65% 30.46 in 10.0 mi SE 5.8 mph - N/A   Clear
10:53 PM 37.9 °F 32.7 °F 27.0 °F 65% 30.46 in 10.0 mi SE 6.9 mph - N/A   Clear
11:53 PM 37.9 °F 34.4 °F 26.1 °F 62% 30.46 in 10.0 mi ESE 4.6 mph - N/A   Clear